Location: Unspecified
(0.0000°N, 0.0000°E)
Time: 06:16:39
(UTC+00:00)

N. Korean satellite - Pass Details

Date: 15 June 2019
Orbit: 455 x 508 km, 97.2° (Epoch: 15 September)

Event Time Altitude Azimuth Distance (km) Brightness Sun altitude
Rises 05:19:12 0° 24° (NNE) 2,479 11.0 -9.5°
Reaches altitude 10° 05:21:19 10° 33° (NNE) 1,615 10.2 -9.0°
Maximum altitude 05:24:32 36° 101° (E) 757 8.1 -8.2°
Drops below altitude 10° 05:27:49 10° 169° (S) 1,650 9.1 -7.5°
Sets 05:30:00 0° 178° (S) 2,542 10.0 -7.0°
